Погода в Бергене

Германия     52°48′34″N   9°57′44″E
темп.,
°C
ветер,
м/с
пор.,
м/с
влажн.,
%
обл.,
%
осадки,
мм/ч
давл.,
гПа
погр.,
м
21 июня, пн
пн2123:00+19ссв3881100 0.0 1008246
02:00+17св41187100 0.0 1008387
05:00+16ссв51197100 5.9 1005444
08:00+15ссз2499100 27.4 1005346
11:00+18ссв239290 3.6 1006406
14:00+21зсз028299 4.3 1006580
17:00+20ссз338341 1.6 1007458
20:00+16ссз4687100 1.7 1009539
22 июня, вт
вт2223:00+13ссз4893100 0.2 1012516
02:00+12сз3792100 0.3 1013432
05:00+11ссз3888100 0.0 1014406
08:00+13ссз3777100 0.0 1015608
11:00+17ссз235770 0.0 10161282
14:00+20сз334776 0.0 10161494
17:00+21сз434852 0.0 10161487
20:00+17ссз45627 0.0 1017650
23 июня, ср
ср2323:00+12ссз38795 0.0 1019282
02:00+10ссз24905 0.0 102099
05:00+9сз2493100 0.0 102093
08:00+13зсз2375100 0.0 1021362
11:00+17сз2353100 0.0 1021778
14:00+20сз2244100 0.0 10211150
17:00+22зсз224398 0.0 10201503
20:00+19ссз366899 0.0 1020366
24 июня, чт
чт2423:00+16ссв268285 0.0 1021237
02:00+14св229142 0.0 102129
05:00+13св119554 0.0 102023
08:00+17св2380100 0.0 1020413
11:00+19св326874 0.0 1019802
14:00+21св2259100 0.1 10181141
17:00+18всв3379100 0.6 1018516
20:00+17св2480100 0.9 1017301
25 июня, пт
пт2523:00+15всв1291100 0.0 101779
02:00+14ссз239137 0.0 101683
05:00+12вюв119616 0.0 101610
08:00+16з238253 0.0 1016360
11:00+20зсз236119 0.1 10161258
14:00+22зсз334797 0.3 10151907
17:00+23зсз444244 0.0 10151960
20:00+20сз356322 0.0 1015594